contact:dominique.lefevre@mio.osupytheas.fr, maurice.libes@osupytheas.fr, didier.mallarino@osupytheas.fr
Project:EMSO http://www.emso-fr.org/EMSO-France
Depth: 2436.0 m
Title:EMSO Ligure Ouest : Data MII capteur MICROCAT
DateTime_Computer,Latitude,Longitude,Temperature,Conductivity,Pressure,DateTime_Instrument
DateTime_Computer,Latitude,Longitude,degC,S m-1,dbar,DateTime_Instrument
2020-04-06T00:01:24Z,42.805,6.029,13.3024,4.60032,2469.937,2020-4-06T02:02:03Z
2020-04-06T00:04:27Z,42.805,6.029,13.3062,4.60034,2469.96,2020-4-06T02:05:06Z
2020-04-06T00:07:30Z,42.805,6.029,13.3054,4.60009,2469.96,2020-4-06T02:08:09Z
2020-04-06T00:10:33Z,42.805,6.029,13.3043,4.60030,2469.937,2020-4-06T02:11:12Z
2020-04-06T00:13:37Z,42.805,6.029,13.3021,4.60091,2469.947,2020-4-06T02:14:16Z
2020-04-06T00:16:40Z,42.805,6.029,13.3026,4.60054,2469.914,2020-4-06T02:17:19Z
2020-04-06T00:19:43Z,42.805,6.029,13.3063,4.60062,2469.923,2020-4-06T02:20:22Z
2020-04-06T00:22:46Z,42.805,6.029,13.3046,4.60028,2469.914,2020-4-06T02:23:25Z
2020-04-06T00:25:50Z,42.805,6.029,13.3027,4.60029,2469.914,2020-4-06T02:26:29Z
2020-04-06T00:28:53Z,42.805,6.029,13.3034,4.60016,2469.937,2020-4-06T02:29:32Z
2020-04-06T00:31:56Z,42.805,6.029,13.3014,4.60008,2469.937,2020-4-06T02:32:35Z
2020-04-06T00:34:59Z,42.805,6.029,13.3032,4.60012,2469.923,2020-4-06T02:35:38Z
2020-04-06T00:38:02Z,42.805,6.029,13.3067,4.60019,2469.9,2020-4-06T02:38:41Z
2020-04-06T00:41:06Z,42.805,6.029,13.3023,4.60036,2469.96,2020-4-06T02:41:45Z
2020-04-06T00:44:09Z,42.805,6.029,13.3033,4.60024,2469.96,2020-4-06T02:44:48Z
2020-04-06T00:47:12Z,42.805,6.029,13.3025,4.60016,2469.937,2020-4-06T02:47:51Z
2020-04-06T00:50:16Z,42.805,6.029,13.3043,4.60011,2469.937,2020-4-06T02:50:54Z
2020-04-06T00:53:19Z,42.805,6.029,13.3022,4.60000,2469.947,2020-4-06T02:53:58Z
2020-04-06T00:56:22Z,42.805,6.029,13.3028,4.60008,2469.96,2020-4-06T02:57:01Z
2020-04-06T00:59:25Z,42.805,6.029,13.3029,4.60021,2469.993,2020-4-06T03:00:04Z
2020-04-06T01:02:28Z,42.805,6.029,13.3037,4.60008,2469.97,2020-4-06T03:03:07Z
2020-04-06T01:05:32Z,42.805,6.029,13.3024,4.60025,2469.947,2020-4-06T03:06:10Z
2020-04-06T01:08:35Z,42.805,6.029,13.3018,4.60009,2469.937,2020-4-06T03:09:14Z
2020-04-06T01:11:38Z,42.805,6.029,13.3014,4.60001,2469.96,2020-4-06T03:12:17Z
2020-04-06T01:14:42Z,42.805,6.029,13.3011,4.60013,2469.947,2020-4-06T03:15:20Z
2020-04-06T01:17:45Z,42.805,6.029,13.3024,4.60017,2469.984,2020-4-06T03:18:24Z
2020-04-06T01:20:48Z,42.805,6.029,13.3039,4.60009,2469.937,2020-4-06T03:21:27Z
2020-04-06T01:23:51Z,42.805,6.029,13.3034,4.60004,2469.984,2020-4-06T03:24:30Z
2020-04-06T01:26:54Z,42.805,6.029,13.3021,4.60013,2469.984,2020-4-06T03:27:33Z
2020-04-06T01:29:58Z,42.805,6.029,13.3033,4.60026,2469.984,2020-4-06T03:30:37Z
2020-04-06T01:33:01Z,42.805,6.029,13.3049,4.60011,2469.96,2020-4-06T03:33:40Z
2020-04-06T01:36:04Z,42.805,6.029,13.3055,4.60006,2469.993,2020-4-06T03:36:43Z
2020-04-06T01:39:08Z,42.805,6.029,13.3039,4.60016,2469.984,2020-4-06T03:39:47Z
2020-04-06T01:42:11Z,42.805,6.029,13.3021,4.60026,2469.993,2020-4-06T03:42:50Z
2020-04-06T01:45:14Z,42.805,6.029,13.3024,4.60022,2470.007,2020-4-06T03:45:53Z
2020-04-06T01:48:17Z,42.805,6.029,13.3042,4.60005,2469.984,2020-4-06T03:48:56Z
2020-04-06T01:51:21Z,42.805,6.029,13.3024,4.60058,2470.007,2020-4-06T03:51:59Z
2020-04-06T01:54:24Z,42.805,6.029,13.3058,4.60038,2469.984,2020-4-06T03:55:03Z
2020-04-06T01:57:27Z,42.805,6.029,13.3034,4.60028,2469.947,2020-4-06T03:58:06Z
2020-04-06T02:00:30Z,42.805,6.029,13.3039,4.60018,2469.97,2020-4-06T04:01:09Z
2020-04-06T02:03:34Z,42.805,6.029,13.3076,4.60006,2470.03,2020-4-06T04:04:12Z
2020-04-06T02:06:37Z,42.805,6.029,13.3046,4.60023,2469.993,2020-4-06T04:07:16Z
2020-04-06T02:09:40Z,42.805,6.029,13.3060,4.59994,2470.007,2020-4-06T04:10:19Z
2020-04-06T02:12:43Z,42.805,6.029,13.3039,4.59999,2470.007,2020-4-06T04:13:22Z
2020-04-06T02:15:47Z,42.805,6.029,13.3060,4.60016,2470.017,2020-4-06T04:16:25Z
2020-04-06T02:18:50Z,42.805,6.029,13.3021,4.60025,2470.017,2020-4-06T04:19:29Z
2020-04-06T02:21:53Z,42.805,6.029,13.3022,4.59995,2469.993,2020-4-06T04:22:32Z
2020-04-06T02:24:56Z,42.805,6.029,13.3024,4.60001,2469.993,2020-4-06T04:25:35Z
2020-04-06T02:28:00Z,42.805,6.029,13.3023,4.59996,2470.03,2020-4-06T04:28:38Z
2020-04-06T02:31:03Z,42.805,6.029,13.3010,4.60008,2470.03,2020-4-06T04:31:42Z
2020-04-06T02:34:06Z,42.805,6.029,13.3024,4.60004,2470.03,2020-4-06T04:34:45Z
2020-04-06T02:37:09Z,42.805,6.029,13.3019,4.60035,2470.03,2020-4-06T04:37:48Z
2020-04-06T02:40:12Z,42.805,6.029,13.3014,4.60031,2470.007,2020-4-06T04:40:51Z
2020-04-06T02:43:16Z,42.805,6.029,13.2996,4.60056,2470.053,2020-4-06T04:43:55Z
2020-04-06T02:46:19Z,42.805,6.029,13.3010,4.60027,2470.017,2020-4-06T04:46:58Z
2020-04-06T02:49:22Z,42.805,6.029,13.3009,4.60000,2470.017,2020-4-06T04:50:01Z
2020-04-06T02:52:25Z,42.805,6.029,13.2990,4.60035,2470.04,2020-4-06T04:53:04Z
2020-04-06T02:55:29Z,42.805,6.029,13.3007,4.60036,2470.077,2020-4-06T04:56:08Z
2020-04-06T02:58:32Z,42.805,6.029,13.3031,4.60023,2470.063,2020-4-06T04:59:11Z
2020-04-06T03:01:35Z,42.805,6.029,13.3035,4.60036,2470.04,2020-4-06T05:02:14Z
2020-04-06T03:04:39Z,42.805,6.029,13.2986,4.60057,2470.087,2020-4-06T05:05:17Z
2020-04-06T03:07:42Z,42.805,6.029,13.2993,4.60104,2470.04,2020-4-06T05:08:21Z
2020-04-06T03:10:45Z,42.805,6.029,13.3009,4.60106,2470.053,2020-4-06T05:11:24Z
2020-04-06T03:13:48Z,42.805,6.029,13.3020,4.60087,2470.04,2020-4-06T05:14:27Z
2020-04-06T03:16:52Z,42.805,6.029,13.3021,4.60059,2470.04,2020-4-06T05:17:31Z
2020-04-06T03:19:55Z,42.805,6.029,13.3004,4.60066,2470.077,2020-4-06T05:20:34Z
2020-04-06T03:22:58Z,42.805,6.029,13.2990,4.60054,2470.063,2020-4-06T05:23:37Z
2020-04-06T03:26:01Z,42.805,6.029,13.2994,4.60062,2470.087,2020-4-06T05:26:40Z
2020-04-06T03:29:05Z,42.805,6.029,13.2999,4.60055,2470.077,2020-4-06T05:29:43Z
2020-04-06T03:32:08Z,42.805,6.029,13.3004,4.60044,2470.124,2020-4-06T05:32:47Z
2020-04-06T03:35:11Z,42.805,6.029,13.2994,4.60035,2470.063,2020-4-06T05:35:50Z
2020-04-06T03:38:14Z,42.805,6.029,13.3015,4.60069,2470.1,2020-4-06T05:38:53Z
2020-04-06T03:41:18Z,42.805,6.029,13.2999,4.60081,2470.124,2020-4-06T05:41:56Z
2020-04-06T03:44:21Z,42.805,6.029,13.2999,4.60047,2470.063,2020-4-06T05:45:00Z
2020-04-06T03:47:24Z,42.805,6.029,13.3007,4.60036,2470.1,2020-4-06T05:48:03Z
2020-04-06T03:50:27Z,42.805,6.029,13.2991,4.60053,2470.087,2020-4-06T05:51:06Z
2020-04-06T03:53:31Z,42.805,6.029,13.2989,4.60070,2470.11,2020-4-06T05:54:09Z
2020-04-06T03:56:34Z,42.805,6.029,13.2991,4.60064,2470.1,2020-4-06T05:57:13Z
2020-04-06T03:59:37Z,42.805,6.029,13.2990,4.60022,2470.124,2020-4-06T06:00:16Z
2020-04-06T04:02:40Z,42.805,6.029,13.2983,4.60044,2470.124,2020-4-06T06:03:19Z
2020-04-06T04:05:44Z,42.805,6.029,13.2991,4.60046,2470.11,2020-4-06T06:06:22Z
2020-04-06T04:08:47Z,42.805,6.029,13.2986,4.60058,2470.147,2020-4-06T06:09:26Z
2020-04-06T04:11:50Z,42.805,6.029,13.3000,4.60058,2470.124,2020-4-06T06:12:29Z
2020-04-06T04:14:53Z,42.805,6.029,13.3001,4.60052,2470.124,2020-4-06T06:15:32Z
2020-04-06T04:17:57Z,42.805,6.029,13.2987,4.60069,2470.147,2020-4-06T06:18:36Z
2020-04-06T04:21:00Z,42.805,6.029,13.2993,4.60059,2470.133,2020-4-06T06:21:39Z
2020-04-06T04:24:03Z,42.805,6.029,13.2992,4.60059,2470.133,2020-4-06T06:24:42Z
2020-04-06T04:27:06Z,42.805,6.029,13.2994,4.60051,2470.11,2020-4-06T06:27:45Z
2020-04-06T04:30:10Z,42.805,6.029,13.2996,4.60046,2470.147,2020-4-06T06:30:49Z
2020-04-06T04:33:13Z,42.805,6.029,13.2997,4.60039,2470.147,2020-4-06T06:33:52Z
2020-04-06T04:36:16Z,42.805,6.029,13.3004,4.60031,2470.156,2020-4-06T06:36:55Z
2020-04-06T04:39:19Z,42.805,6.029,13.2998,4.60021,2470.133,2020-4-06T06:39:58Z
2020-04-06T04:42:23Z,42.805,6.029,13.2990,4.60023,2470.156,2020-4-06T06:43:02Z
2020-04-06T04:45:26Z,42.805,6.029,13.2998,4.60040,2470.156,2020-4-06T06:46:05Z
2020-04-06T04:48:29Z,42.805,6.029,13.2992,4.60037,2470.133,2020-4-06T06:49:08Z
2020-04-06T04:51:32Z,42.805,6.029,13.2997,4.60031,2470.133,2020-4-06T06:52:11Z
2020-04-06T04:54:36Z,42.805,6.029,13.2998,4.60039,2470.156,2020-4-06T06:55:14Z
2020-04-06T04:57:39Z,42.805,6.029,13.2991,4.60043,2470.171,2020-4-06T06:58:18Z
2020-04-06T05:00:42Z,42.805,6.029,13.2990,4.60021,2470.171,2020-4-06T07:01:21Z
2020-04-06T05:03:45Z,42.805,6.029,13.2998,4.60046,2470.171,2020-4-06T07:04:24Z
2020-04-06T05:06:48Z,42.805,6.029,13.2996,4.60035,2470.171,2020-4-06T07:07:27Z
2020-04-06T05:09:52Z,42.805,6.029,13.3000,4.60042,2470.147,2020-4-06T07:10:30Z
2020-04-06T05:12:55Z,42.805,6.029,13.2993,4.60034,2470.194,2020-4-06T07:13:34Z
2020-04-06T05:15:58Z,42.805,6.029,13.2991,4.60024,2470.156,2020-4-06T07:16:37Z
2020-04-06T05:19:02Z,42.805,6.029,13.2982,4.60016,2470.194,2020-4-06T07:19:40Z
2020-04-06T05:22:05Z,42.805,6.029,13.3004,4.60023,2470.171,2020-4-06T07:22:44Z
2020-04-06T05:25:08Z,42.805,6.029,13.2986,4.60028,2470.194,2020-4-06T07:25:47Z
2020-04-06T05:28:11Z,42.805,6.029,13.2991,4.60038,2470.203,2020-4-06T07:28:50Z
2020-04-06T05:31:15Z,42.805,6.029,13.2993,4.60033,2470.171,2020-4-06T07:31:53Z
2020-04-06T05:34:18Z,42.805,6.029,13.2988,4.60032,2470.171,2020-4-06T07:34:57Z
2020-04-06T05:37:21Z,42.805,6.029,13.2989,4.60018,2470.18,2020-4-06T07:38:00Z
2020-04-06T05:40:25Z,42.805,6.029,13.2984,4.60016,2470.18,2020-4-06T07:41:03Z
2020-04-06T05:43:28Z,42.805,6.029,13.2990,4.60016,2470.203,2020-4-06T07:44:07Z
2020-04-06T05:46:31Z,42.805,6.029,13.2995,4.60015,2470.18,2020-4-06T07:47:10Z
2020-04-06T05:49:35Z,42.805,6.029,13.2995,4.60031,2470.18,2020-4-06T07:50:13Z
2020-04-06T05:52:38Z,42.805,6.029,13.2983,4.60013,2470.18,2020-4-06T07:53:17Z
2020-04-06T05:55:41Z,42.805,6.029,13.2979,4.60016,2470.171,2020-4-06T07:56:20Z
2020-04-06T05:58:44Z,42.805,6.029,13.2988,4.60013,2470.217,2020-4-06T07:59:23Z
2020-04-06T06:01:47Z,42.805,6.029,13.2996,4.60029,2470.18,2020-4-06T08:02:26Z
2020-04-06T06:04:51Z,42.805,6.029,13.2986,4.60016,2470.18,2020-4-06T08:05:30Z
2020-04-06T06:07:54Z,42.805,6.029,13.2989,4.60019,2470.194,2020-4-06T08:08:33Z
2020-04-06T06:10:57Z,42.805,6.029,13.2984,4.60000,2470.217,2020-4-06T08:11:36Z
2020-04-06T06:14:01Z,42.805,6.029,13.2990,4.60027,2470.203,2020-4-06T08:14:39Z
2020-04-06T06:17:04Z,42.805,6.029,13.2984,4.60007,2470.203,2020-4-06T08:17:43Z
2020-04-06T06:20:07Z,42.805,6.029,13.2988,4.60033,2470.18,2020-4-06T08:20:46Z
2020-04-06T06:23:10Z,42.805,6.029,13.2981,4.60018,2470.156,2020-4-06T08:23:49Z
2020-04-06T06:26:14Z,42.805,6.029,13.2996,4.60022,2470.156,2020-4-06T08:26:52Z
2020-04-06T06:29:17Z,42.805,6.029,13.2981,4.60023,2470.194,2020-4-06T08:29:56Z
2020-04-06T06:32:20Z,42.805,6.029,13.3002,4.60026,2470.18,2020-4-06T08:32:59Z
2020-04-06T06:35:23Z,42.805,6.029,13.2989,4.60026,2470.194,2020-4-06T08:36:02Z
2020-04-06T06:38:27Z,42.805,6.029,13.2985,4.60016,2470.171,2020-4-06T08:39:06Z
2020-04-06T06:41:30Z,42.805,6.029,13.2986,4.60026,2470.217,2020-4-06T08:42:09Z
2020-04-06T06:44:33Z,42.805,6.029,13.2990,4.60021,2470.156,2020-4-06T08:45:12Z
2020-04-06T06:47:36Z,42.805,6.029,13.2982,4.59999,2470.18,2020-4-06T08:48:15Z
2020-04-06T06:50:40Z,42.805,6.029,13.2983,4.60001,2470.194,2020-4-06T08:51:19Z
2020-04-06T06:53:43Z,42.805,6.029,13.2985,4.60018,2470.194,2020-4-06T08:54:22Z
2020-04-06T06:56:46Z,42.805,6.029,13.2990,4.60006,2470.217,2020-4-06T08:57:25Z
2020-04-06T06:59:50Z,42.805,6.029,13.2995,4.60018,2470.194,2020-4-06T09:00:28Z
2020-04-06T07:02:53Z,42.805,6.029,13.2989,4.60009,2470.217,2020-4-06T09:03:32Z
2020-04-06T07:05:56Z,42.805,6.029,13.2986,4.60025,2470.194,2020-4-06T09:06:35Z
2020-04-06T07:08:59Z,42.805,6.029,13.2987,4.60021,2470.18,2020-4-06T09:09:38Z
2020-04-06T07:12:03Z,42.805,6.029,13.2991,4.60009,2470.18,2020-4-06T09:12:42Z
2020-04-06T07:15:06Z,42.805,6.029,13.2979,4.59996,2470.194,2020-4-06T09:15:45Z
2020-04-06T07:18:09Z,42.805,6.029,13.2979,4.60003,2470.156,2020-4-06T09:18:48Z
2020-04-06T07:21:13Z,42.805,6.029,13.2989,4.60002,2470.18,2020-4-06T09:21:51Z
2020-04-06T07:24:16Z,42.805,6.029,13.2982,4.60007,2470.194,2020-4-06T09:24:55Z
2020-04-06T07:27:19Z,42.805,6.029,13.2982,4.60007,2470.156,2020-4-06T09:27:58Z
2020-04-06T07:30:22Z,42.805,6.029,13.2983,4.60007,2470.171,2020-4-06T09:31:01Z
2020-04-06T07:33:26Z,42.805,6.029,13.2982,4.60011,2470.194,2020-4-06T09:34:04Z
2020-04-06T07:36:29Z,42.805,6.029,13.2991,4.60007,2470.156,2020-4-06T09:37:08Z
2020-04-06T07:39:32Z,42.805,6.029,13.2993,4.59999,2470.18,2020-4-06T09:40:11Z
2020-04-06T07:42:36Z,42.805,6.029,13.2983,4.60008,2470.18,2020-4-06T09:43:14Z
2020-04-06T07:45:39Z,42.805,6.029,13.2990,4.60001,2470.133,2020-4-06T09:46:18Z
2020-04-06T07:48:42Z,42.805,6.029,13.2982,4.60010,2470.18,2020-4-06T09:49:21Z
2020-04-06T07:51:45Z,42.805,6.029,13.2984,4.60023,2470.156,2020-4-06T09:52:24Z
2020-04-06T07:54:48Z,42.805,6.029,13.2989,4.60024,2470.156,2020-4-06T09:55:27Z
2020-04-06T07:57:52Z,42.805,6.029,13.3004,4.60050,2470.171,2020-4-06T09:58:31Z
2020-04-06T08:00:55Z,42.805,6.029,13.2987,4.60034,2470.124,2020-4-06T10:01:34Z
2020-04-06T08:03:58Z,42.805,6.029,13.2990,4.60039,2470.133,2020-4-06T10:04:37Z
2020-04-06T08:07:02Z,42.805,6.029,13.2992,4.60040,2470.147,2020-4-06T10:07:40Z
2020-04-06T08:10:05Z,42.805,6.029,13.3005,4.60036,2470.147,2020-4-06T10:10:44Z
2020-04-06T08:13:08Z,42.805,6.029,13.3000,4.60041,2470.18,2020-4-06T10:13:47Z
2020-04-06T08:16:11Z,42.805,6.029,13.2993,4.60042,2470.18,2020-4-06T10:16:50Z
2020-04-06T08:19:15Z,42.805,6.029,13.2996,4.60042,2470.124,2020-4-06T10:19:53Z
2020-04-06T08:22:18Z,42.805,6.029,13.3009,4.60019,2470.156,2020-4-06T10:22:57Z
2020-04-06T08:25:21Z,42.805,6.029,13.2991,4.59997,2470.133,2020-4-06T10:26:00Z
2020-04-06T08:28:24Z,42.805,6.029,13.2986,4.60010,2470.133,2020-4-06T10:29:03Z
2020-04-06T08:31:28Z,42.805,6.029,13.2987,4.60005,2470.147,2020-4-06T10:32:06Z
2020-04-06T08:34:31Z,42.805,6.029,13.2989,4.60033,2470.124,2020-4-06T10:35:10Z
2020-04-06T08:37:34Z,42.805,6.029,13.3006,4.60026,2470.147,2020-4-06T10:38:13Z
2020-04-06T08:40:37Z,42.805,6.029,13.2998,4.60024,2470.11,2020-4-06T10:41:16Z
2020-04-06T08:43:41Z,42.805,6.029,13.2983,4.60024,2470.147,2020-4-06T10:44:19Z
2020-04-06T08:46:44Z,42.805,6.029,13.3011,4.60024,2470.133,2020-4-06T10:47:23Z
2020-04-06T08:49:47Z,42.805,6.029,13.2987,4.60015,2470.124,2020-4-06T10:50:26Z
2020-04-06T08:52:50Z,42.805,6.029,13.2980,4.60001,2470.124,2020-4-06T10:53:29Z
2020-04-06T08:55:54Z,42.805,6.029,13.2990,4.59998,2470.087,2020-4-06T10:56:32Z
2020-04-06T08:58:57Z,42.805,6.029,13.2990,4.60001,2470.063,2020-4-06T10:59:36Z
2020-04-06T09:02:00Z,42.805,6.029,13.2996,4.60003,2470.087,2020-4-06T11:02:39Z
2020-04-06T09:05:03Z,42.805,6.029,13.2987,4.60029,2470.1,2020-4-06T11:05:42Z
2020-04-06T09:08:07Z,42.805,6.029,13.2996,4.60019,2470.124,2020-4-06T11:08:46Z
2020-04-06T09:11:10Z,42.805,6.029,13.3014,4.60011,2470.087,2020-4-06T11:11:49Z
2020-04-06T09:14:13Z,42.805,6.029,13.3007,4.60025,2470.087,2020-4-06T11:14:52Z
2020-04-06T09:17:16Z,42.805,6.029,13.3000,4.60039,2470.1,2020-4-06T11:17:55Z
2020-04-06T09:20:20Z,42.805,6.029,13.3000,4.60031,2470.063,2020-4-06T11:20:59Z
2020-04-06T09:23:23Z,42.805,6.029,13.2998,4.60034,2470.087,2020-4-06T11:24:02Z
2020-04-06T09:26:26Z,42.805,6.029,13.3015,4.60029,2470.053,2020-4-06T11:27:05Z
2020-04-06T09:29:29Z,42.805,6.029,13.3005,4.60046,2470.1,2020-4-06T11:30:08Z
2020-04-06T09:32:33Z,42.805,6.029,13.3023,4.60031,2470.077,2020-4-06T11:33:12Z
2020-04-06T09:35:36Z,42.805,6.029,13.3019,4.60059,2470.077,2020-4-06T11:36:15Z
2020-04-06T09:38:39Z,42.805,6.029,13.2997,4.60029,2470.063,2020-4-06T11:39:18Z
2020-04-06T09:41:42Z,42.805,6.029,13.3021,4.60052,2470.077,2020-4-06T11:42:21Z
2020-04-06T09:44:46Z,42.805,6.029,13.2998,4.60058,2470.1,2020-4-06T11:45:25Z
2020-04-06T09:47:49Z,42.805,6.029,13.3024,4.60027,2470.124,2020-4-06T11:48:28Z
2020-04-06T09:50:52Z,42.805,6.029,13.2983,4.60025,2470.1,2020-4-06T11:51:31Z
2020-04-06T09:53:55Z,42.805,6.029,13.2990,4.60044,2470.1,2020-4-06T11:54:34Z
2020-04-06T09:56:59Z,42.805,6.029,13.2990,4.60005,2470.063,2020-4-06T11:57:38Z
2020-04-06T10:00:02Z,42.805,6.029,13.3012,4.60080,2470.03,2020-4-06T12:00:41Z
2020-04-06T10:03:05Z,42.805,6.029,13.2996,4.60040,2470.053,2020-4-06T12:03:44Z
2020-04-06T10:06:09Z,42.805,6.029,13.3004,4.60029,2470.04,2020-4-06T12:06:47Z
2020-04-06T10:09:12Z,42.805,6.029,13.3009,4.60037,2470.077,2020-4-06T12:09:51Z
2020-04-06T10:12:15Z,42.805,6.029,13.3001,4.60025,2470.053,2020-4-06T12:12:54Z
2020-04-06T10:15:18Z,42.805,6.029,13.3001,4.60031,2470.077,2020-4-06T12:15:57Z
2020-04-06T10:18:21Z,42.805,6.029,13.3004,4.60038,2470.053,2020-4-06T12:19:00Z
2020-04-06T10:21:25Z,42.805,6.029,13.3011,4.60034,2470.053,2020-4-06T12:22:04Z
2020-04-06T10:24:28Z,42.805,6.029,13.3009,4.60042,2470.017,2020-4-06T12:25:07Z
2020-04-06T10:27:31Z,42.805,6.029,13.3001,4.60033,2470.053,2020-4-06T12:28:10Z
2020-04-06T10:30:35Z,42.805,6.029,13.3004,4.60017,2470.03,2020-4-06T12:31:14Z
2020-04-06T10:33:38Z,42.805,6.029,13.2998,4.60020,2470.063,2020-4-06T12:34:17Z
2020-04-06T10:36:41Z,42.805,6.029,13.3000,4.60030,2470.04,2020-4-06T12:37:20Z
2020-04-06T10:39:44Z,42.805,6.029,13.3007,4.60009,2470.007,2020-4-06T12:40:23Z
2020-04-06T10:42:48Z,42.805,6.029,13.3006,4.60031,2470.03,2020-4-06T12:43:26Z
2020-04-06T10:45:51Z,42.805,6.029,13.2995,4.60041,2470.017,2020-4-06T12:46:30Z
2020-04-06T10:48:54Z,42.805,6.029,13.2992,4.60039,2469.984,2020-4-06T12:49:33Z
2020-04-06T10:51:57Z,42.805,6.029,13.3009,4.60033,2470.03,2020-4-06T12:52:36Z
2020-04-06T10:55:01Z,42.805,6.029,13.2990,4.60017,2469.993,2020-4-06T12:55:40Z
2020-04-06T10:58:04Z,42.805,6.029,13.3021,4.60024,2470.03,2020-4-06T12:58:43Z
2020-04-06T11:01:07Z,42.805,6.029,13.2983,4.60036,2470.04,2020-4-06T13:01:46Z
2020-04-06T11:04:10Z,42.805,6.029,13.2987,4.60062,2470.007,2020-4-06T13:04:49Z
2020-04-06T11:07:14Z,42.805,6.029,13.3017,4.60040,2469.993,2020-4-06T13:07:52Z
2020-04-06T11:10:17Z,42.805,6.029,13.3003,4.60039,2470.007,2020-4-06T13:10:56Z
2020-04-06T11:13:20Z,42.805,6.029,13.3015,4.60038,2469.993,2020-4-06T13:13:59Z
2020-04-06T11:16:23Z,42.805,6.029,13.3008,4.60041,2470.017,2020-4-06T13:17:02Z
2020-04-06T11:19:27Z,42.805,6.029,13.3023,4.60061,2469.993,2020-4-06T13:20:06Z
2020-04-06T11:22:30Z,42.805,6.029,13.3017,4.60025,2469.993,2020-4-06T13:23:09Z
2020-04-06T11:25:33Z,42.805,6.029,13.3019,4.60040,2469.997,2020-4-06T13:26:12Z
2020-04-06T11:28:36Z,42.805,6.029,13.3005,4.60046,2469.993,2020-4-06T13:29:15Z
2020-04-06T11:31:40Z,42.805,6.029,13.3005,4.60033,2469.97,2020-4-06T13:32:19Z
2020-04-06T11:34:43Z,42.805,6.029,13.3022,4.60050,2470.007,2020-4-06T13:35:22Z
2020-04-06T11:37:46Z,42.805,6.029,13.3024,4.60070,2469.993,2020-4-06T13:38:25Z
2020-04-06T11:40:50Z,42.805,6.029,13.3022,4.60054,2469.984,2020-4-06T13:41:28Z
2020-04-06T11:43:53Z,42.805,6.029,13.2999,4.60051,2469.947,2020-4-06T13:44:32Z
2020-04-06T11:46:56Z,42.805,6.029,13.3022,4.60041,2469.984,2020-4-06T13:47:35Z
2020-04-06T11:49:59Z,42.805,6.029,13.3005,4.60048,2469.97,2020-4-06T13:50:38Z
2020-04-06T11:53:03Z,42.805,6.029,13.3000,4.60067,2469.947,2020-4-06T13:53:41Z
2020-04-06T11:56:06Z,42.805,6.029,13.3002,4.60046,2469.96,2020-4-06T13:56:45Z
2020-04-06T11:59:09Z,42.805,6.029,13.2990,4.60052,2469.984,2020-4-06T13:59:48Z
2020-04-06T12:02:12Z,42.805,6.029,13.3023,4.60069,2469.984,2020-4-06T14:02:51Z
2020-04-06T12:05:15Z,42.805,6.029,13.3011,4.60039,2469.937,2020-4-06T14:05:54Z
2020-04-06T12:08:19Z,42.805,6.029,13.2978,4.60013,2470.007,2020-4-06T14:08:58Z
2020-04-06T12:11:22Z,42.805,6.029,13.3009,4.60035,2469.96,2020-4-06T14:12:01Z
2020-04-06T12:14:26Z,42.805,6.029,13.3015,4.60056,2469.947,2020-4-06T14:15:04Z
2020-04-06T12:17:29Z,42.805,6.029,13.3018,4.60035,2469.984,2020-4-06T14:18:08Z
2020-04-06T12:20:32Z,42.805,6.029,13.3029,4.60046,2469.96,2020-4-06T14:21:11Z
2020-04-06T12:23:35Z,42.805,6.029,13.3000,4.60053,2469.96,2020-4-06T14:24:14Z
2020-04-06T12:26:39Z,42.805,6.029,13.3031,4.60051,2469.984,2020-4-06T14:27:18Z
2020-04-06T12:29:42Z,42.805,6.029,13.2998,4.60037,2469.96,2020-4-06T14:30:21Z
2020-04-06T12:32:45Z,42.805,6.029,13.3006,4.60036,2469.984,2020-4-06T14:33:24Z
2020-04-06T12:35:48Z,42.805,6.029,13.3014,4.59991,2469.984,2020-4-06T14:36:27Z
2020-04-06T12:38:52Z,42.805,6.029,13.3024,4.59994,2469.947,2020-4-06T14:39:31Z
2020-04-06T12:41:55Z,42.805,6.029,13.3012,4.60000,2469.947,2020-4-06T14:42:34Z
2020-04-06T12:44:58Z,42.805,6.029,13.3020,4.60062,2469.96,2020-4-06T14:45:37Z
2020-04-06T12:48:01Z,42.805,6.029,13.3028,4.60047,2469.96,2020-4-06T14:48:40Z
2020-04-06T12:51:05Z,42.805,6.029,13.3031,4.60029,2469.96,2020-4-06T14:51:44Z
2020-04-06T12:54:08Z,42.805,6.029,13.3009,4.60014,2469.937,2020-4-06T14:54:47Z
2020-04-06T12:57:11Z,42.805,6.029,13.3000,4.60023,2470.007,2020-4-06T14:57:50Z
2020-04-06T13:00:14Z,42.805,6.029,13.3008,4.60011,2469.923,2020-4-06T15:00:53Z
2020-04-06T13:03:18Z,42.805,6.029,13.3009,4.60005,2469.937,2020-4-06T15:03:57Z
2020-04-06T13:06:21Z,42.805,6.029,13.2988,4.59987,2469.947,2020-4-06T15:07:00Z
2020-04-06T13:09:24Z,42.805,6.029,13.2986,4.59996,2469.947,2020-4-06T15:10:03Z
2020-04-06T13:12:27Z,42.805,6.029,13.2987,4.60040,2469.984,2020-4-06T15:13:06Z
2020-04-06T13:15:31Z,42.805,6.029,13.2995,4.60024,2469.96,2020-4-06T15:16:09Z
2020-04-06T13:18:34Z,42.805,6.029,13.3001,4.60005,2469.96,2020-4-06T15:19:13Z
2020-04-06T13:21:37Z,42.805,6.029,13.2993,4.60029,2469.96,2020-4-06T15:22:16Z
2020-04-06T13:24:40Z,42.805,6.029,13.3019,4.60014,2469.937,2020-4-06T15:25:19Z
2020-04-06T13:27:44Z,42.805,6.029,13.3000,4.60010,2469.923,2020-4-06T15:28:22Z
2020-04-06T13:30:47Z,42.805,6.029,13.3002,4.60001,2469.984,2020-4-06T15:31:26Z
2020-04-06T13:33:50Z,42.805,6.029,13.2991,4.60008,2469.96,2020-4-06T15:34:29Z
2020-04-06T13:36:53Z,42.805,6.029,13.3014,4.60022,2469.947,2020-4-06T15:37:32Z
2020-04-06T13:39:56Z,42.805,6.029,13.3005,4.60021,2469.96,2020-4-06T15:40:35Z
2020-04-06T13:43:00Z,42.805,6.029,13.3028,4.60022,2470.007,2020-4-06T15:43:38Z
2020-04-06T13:46:03Z,42.805,6.029,13.2979,4.60019,2469.97,2020-4-06T15:46:42Z
2020-04-06T13:49:06Z,42.805,6.029,13.2996,4.60025,2469.947,2020-4-06T15:49:45Z
2020-04-06T13:52:09Z,42.805,6.029,13.3009,4.60019,2469.947,2020-4-06T15:52:48Z
2020-04-06T13:55:13Z,42.805,6.029,13.2999,4.60046,2469.947,2020-4-06T15:55:51Z
2020-04-06T13:58:16Z,42.805,6.029,13.2992,4.60000,2469.937,2020-4-06T15:58:55Z
2020-04-06T14:01:19Z,42.805,6.029,13.3014,4.59997,2469.96,2020-4-06T16:01:58Z
2020-04-06T14:04:22Z,42.805,6.029,13.3014,4.60024,2469.984,2020-4-06T16:05:01Z
2020-04-06T14:07:26Z,42.805,6.029,13.2997,4.60029,2469.97,2020-4-06T16:08:04Z
2020-04-06T14:10:29Z,42.805,6.029,13.3005,4.59997,2469.97,2020-4-06T16:11:08Z
2020-04-06T14:13:32Z,42.805,6.029,13.3002,4.59989,2469.96,2020-4-06T16:14:11Z
2020-04-06T14:16:35Z,42.805,6.029,13.3022,4.60010,2469.947,2020-4-06T16:17:14Z
2020-04-06T14:19:39Z,42.805,6.029,13.3028,4.60001,2469.96,2020-4-06T16:20:18Z
2020-04-06T14:22:42Z,42.805,6.029,13.2991,4.59994,2469.96,2020-4-06T16:23:21Z
2020-04-06T14:25:45Z,42.805,6.029,13.2993,4.60005,2469.947,2020-4-06T16:26:24Z
2020-04-06T14:28:49Z,42.805,6.029,13.2989,4.60011,2469.993,2020-4-06T16:29:27Z
2020-04-06T14:31:52Z,42.805,6.029,13.3008,4.60046,2469.993,2020-4-06T16:32:31Z
2020-04-06T14:34:55Z,42.805,6.029,13.3012,4.59988,2470.021,2020-4-06T16:35:34Z
2020-04-06T14:37:58Z,42.805,6.029,13.3005,4.60009,2470.007,2020-4-06T16:38:37Z
2020-04-06T14:41:02Z,42.805,6.029,13.2998,4.59995,2469.97,2020-4-06T16:41:40Z
2020-04-06T14:44:05Z,42.805,6.029,13.2997,4.59991,2469.993,2020-4-06T16:44:44Z
2020-04-06T14:47:08Z,42.805,6.029,13.2999,4.59994,2470.007,2020-4-06T16:47:47Z
2020-04-06T14:50:11Z,42.805,6.029,13.3010,4.59986,2469.993,2020-4-06T16:50:50Z
2020-04-06T14:53:15Z,42.805,6.029,13.2992,4.59999,2469.993,2020-4-06T16:53:53Z
2020-04-06T14:56:18Z,42.805,6.029,13.2995,4.59986,2469.974,2020-4-06T16:56:57Z
2020-04-06T14:59:21Z,42.805,6.029,13.2990,4.59991,2470.03,2020-4-06T17:00:00Z
2020-04-06T15:02:24Z,42.805,6.029,13.2993,4.59999,2470.007,2020-4-06T17:03:03Z
2020-04-06T15:05:28Z,42.805,6.029,13.2996,4.59989,2470.007,2020-4-06T17:06:06Z
2020-04-06T15:08:31Z,42.805,6.029,13.2993,4.60001,2469.993,2020-4-06T17:09:10Z
2020-04-06T15:11:34Z,42.805,6.029,13.2990,4.60003,2470.03,2020-4-06T17:12:13Z
2020-04-06T15:14:37Z,42.805,6.029,13.2990,4.60007,2470.007,2020-4-06T17:15:16Z